Content
SEND FEEDBACK

Daily
Averages
Monthly
Summary
United States of America

DEDHAM, MASSACHUSETTS


Home > North America > United States > Massachusetts
Elevation: 64 feet     Latitude: 42 13N     Longitude: 071 07W

WEATHER
 
SELECT A DAY
Number of Records: 133,089;   Date Range: 10/15/98 - 8/12/14
 
SHARE

PRINT THIS DATA

[ ← Previous Day ]
WEATHER ALMANAC - MARCH 28, 2013
[ Next Day → ]
[ °C ]   °F
Weather ElementAverageHighLow
Temperature40 °F45 °F (10:54 am)35.1 °F (3:54 am)
Dewpoint30 °F33.1 °F (3:54 am)26.1 °F (11:54 am)
Humidity69 %92 % (3:54 am)49 % (11:54 am)
Barometer29.96 in30.04 in (9:54 pm)29.87 in (1:54 am)
Wind Speed7.6 mph12.7 mph (1:54 am)
Wind Gust23 mph (1:54 am)
Weather ElementAverage
Wind DirectionSSW (189.1 °)

Weather ElementTotal
Precipitation0.01 in
Heating Degree Days25 (Base 65)
Averaged from 23 records on March 28, 2013
WEATHER CONDITIONS BREAKOUT
WIND DIRECTION BREAKOUT
WEATHER BY HOUR - MARCH 28, 2013
[ °C ]   °F
Local TimeTemperatureDewpointHumidityBarometerVisibilityWind DirectionWind SpeedGust SpeedPrecipitationEventsConditions
1:54 AM37.0 °F30.9 °F79 %29.87 inNNW (340°)12.7 mph23.0 mph
2:54 AM36.0 °F32.0 °F86 %29.87 inNNW (330°)9.2 mph18.4 mph
3:54 AM35.1 °F33.1 °F92 %29.88 inNNW (330°)9.2 mph0.01 in
4:54 AM35.1 °F33.1 °F92 %29.88 inNNW (330°)9.2 mph
5:54 AM35.1 °F33.1 °F92 %29.90 inNNW (330°)11.5 mph17.3 mph
6:54 AM35.1 °F32.0 °F89 %29.91 inNNW (330°)12.7 mph17.3 mph
7:54 AM36.0 °F32.0 °F86 %29.93 inNorth (350°)9.2 mph16.1 mph
8:54 AM37.9 °F30.9 °F76 %29.94 inNorth (10°)8.1 mph
9:54 AM42.1 °F30.0 °F62 %29.94 inNNE (20°)6.9 mph
10:54 AM45.0 °F28.9 °F53 %29.96 inVariable6.9 mph
11:54 AM44.1 °F26.1 °F49 %29.96 inNE (40°)10.4 mph16.1 mph
12:54 PM44.1 °F27.0 °F51 %29.96 inNNE (30°)8.1 mph
1:54 PM43.0 °F26.1 °F51 %29.96 inENE (60°)5.8 mph
2:54 PM43.0 °F28.0 °F56 %29.96 inEast (100°)3.5 mph
3:54 PM44.1 °F28.0 °F53 %29.97 inVariable4.6 mph
4:54 PM43.0 °F28.9 °F58 %29.98 inENE (70°)4.6 mph
5:54 PM41.0 °F30.0 °F65 %29.99 inCalm
6:54 PM41.0 °F30.0 °F65 %30.00 inWest (280°)5.8 mph
7:54 PM41.0 °F30.0 °F65 %30.02 inWest (280°)6.9 mph
8:54 PM41.0 °F30.0 °F65 %30.03 inWSW (250°)5.8 mph
9:54 PM41.0 °F30.0 °F65 %30.04 inWest (270°)8.1 mph
10:54 PM39.9 °F30.0 °F68 %30.03 inWNW (300°)8.1 mph
11:54 PM39.9 °F30.0 °F68 %30.03 inWNW (300°)8.1 mph
Hourly data recorded from KMQE, located miles away from Dedham, Massachusetts







STORIES FROM OUR PARTNERS